,,PA_Meas_PMT16A,,PR_Meas_QMR101_102,,RH_Meas_QMH101,,SR_Meas_QMS101,,TA_Meas_QMH101,,GenWind,,GenWind,
time,status,PA,status,PR,status,RH,status,SR,status,TA,status,DirAvg,status,SpdAvg,
2016-09-27, 00:00:04,VALID,914.984,VALID,0,VALID,72.9637,VALID,177.815,VALID,24.9236,VALID,286,VALID,0.0289063,
2016-09-27, 00:01:04,VALID,915.008,VALID,0,VALID,73.627,VALID,237.23,VALID,25.0798,VALID,15,VALID,0,
2016-09-27, 00:02:04,VALID,914.952,VALID,0,VALID,72.4529,VALID,249.801,VALID,25.3746,VALID,43,VALID,0,
2016-09-27, 00:03:04,VALID,914.971,VALID,0,VALID,71.1951,VALID,236.585,VALID,25.5113,VALID,156,VALID,0,
2016-09-27, 00:04:04,VALID,915.029,VALID,0,VALID,70.631,VALID,216.172,VALID,25.5874,VALID,74,VALID,0,
2016-09-27, 00:05:04,VALID,914.968,VALID,0,VALID,69.6704,VALID,114.64,VALID,25.6441,VALID,36,VALID,1.00352,
2016-09-27, 00:06:04,VALID,914.962,VALID,0,VALID,69.1825,VALID,95.3003,VALID,25.8413,VALID,233,VALID,0,
2016-09-27, 00:07:04,VALID,915.08,VALID,0,VALID,69.6704,VALID,67.0433,VALID,25.8999,VALID,71,VALID,0.531641,
2016-09-27, 00:08:04,VALID,915.113,VALID,0,VALID,69.1749,VALID,75.746,VALID,25.8628,VALID,214,VALID,0,
2016-09-27, 00:09:04,VALID,914.668,VALID,0,VALID,69.5408,VALID,160.625,VALID,25.8413,VALID,202,VALID,0,
2016-09-27, 00:11:04,VALID,914.943,VALID,0,VALID,70.3794,VALID,182.972,VALID,25.687,VALID,289,VALID,0,
2016-09-27, 00:12:04,INVALID,911.686,VALID,0,VALID,70.5928,VALID,182.972,VALID,25.7261,VALID,89,VALID,0.0597656,
2016-09-27, 00:17:04,VALID,915.062,VALID,0,VALID,68.3058,VALID,172.443,VALID,26.0952,VALID,131,VALID,0,
2016-09-27, 00:18:04,VALID,915.183,VALID,0,VALID,68.7098,VALID,174.592,VALID,25.9995,VALID,1,VALID,0.598828,
2016-09-27, 00:19:04,VALID,915.157,VALID,0,VALID,69.8457,VALID,172.121,VALID,25.6655,VALID,265,VALID,1.24375,
2016-09-27, 00:20:04,VALID,915.173,VALID,0,VALID,71.0045,VALID,177.923,VALID,25.5503,VALID,216,VALID,0.648047,
2016-09-27, 00:21:04,VALID,915.156,VALID,0,VALID,70.7377,VALID,175.344,VALID,25.6284,VALID,64,VALID,0.210156,
2016-09-27, 00:22:04,VALID,915.158,VALID,0,VALID,70.3184,VALID,167.501,VALID,25.648,VALID,281,VALID,1.31445,
2016-09-27, 00:23:04,VALID,913.635,VALID,0,VALID,70.3336,VALID,160.839,VALID,25.6284,VALID,248,VALID,0.0183594,
2016-09-27, 00:24:04,VALID,915.16,VALID,0,VALID,70.7301,VALID,158.261,VALID,25.6675,VALID,317,VALID,0,
2016-09-27, 00:25:04,VALID,915.184,VALID,0,VALID,70.0744,VALID,158.153,VALID,25.7476,VALID,272,VALID,1.17852,
2016-09-27, 00:26:04,VALID,915.187,VALID,0,VALID,68.8471,VALID,156.864,VALID,25.8257,VALID,223,VALID,0,
2016-09-27, 00:27:04,VALID,915.288,VALID,0,VALID,69.1139,VALID,150.31,VALID,25.8433,VALID,235,VALID,0.564062,
2016-09-27, 00:28:04,VALID,915.152,VALID,0,VALID,68.3134,VALID,138.814,VALID,25.7651,VALID,350,VALID,0,
2016-09-27, 00:36:04,VALID,910.504,VALID,0,VALID,70.3946,VALID,107.334,VALID,24.9255,VALID,26,VALID,0.9875,
2016-09-27, 00:37:04,INVALID,916.56,VALID,0,VALID,71.5305,VALID,107.119,VALID,24.9078,VALID,17,VALID,1.50078,
2016-09-27, 00:39:04,VALID,916.535,VALID,0,VALID,70.5242,VALID,98.4161,VALID,24.9078,VALID,181,VALID,0,
2016-09-27, 00:40:04,VALID,915.866,VALID,0,VALID,71.1798,VALID,94.4408,VALID,24.9469,VALID,84,VALID,0,
2016-09-27, 00:41:04,VALID,916.157,VALID,0,VALID,71.8354,VALID,94.6557,VALID,25.0231,VALID,20,VALID,0,
2016-09-27, 00:42:04,VALID,915.511,VALID,0,VALID,71.6754,VALID,92.9366,VALID,24.9664,VALID,82,VALID,0.0125,
2016-09-27, 00:43:04,VALID,916.079,VALID,0,VALID,71.4924,VALID,88.5315,VALID,24.9097,VALID,13,VALID,1.86094,
2016-09-27, 00:44:04,VALID,916.047,VALID,0,VALID,71.1646,VALID,68.9772,VALID,24.8297,VALID,256,VALID,1.0332,
2016-09-27, 00:45:04,INVALID,918.157,VALID,0,VALID,72.1709,VALID,83.9115,VALID,24.6754,VALID,295,VALID,1.23555,
2016-09-27, 14:43:04,VALID,917.884,VALID,0,INVALID,110.593,VALID,143.219,VALID,20.7381,VALID,355,VALID,0,
2016-09-27, 14:44:04,VALID,917.906,VALID,0,INVALID,111.142,VALID,146.12,VALID,20.7966,VALID,357,VALID,0,
2016-09-27, 14:45:04,VALID,917.974,VALID,0,INVALID,113.093,VALID,148.806,VALID,20.8567,VALID,15,VALID,0,
2016-09-27, 14:46:04,VALID,918.014,VALID,0,INVALID,114.062,VALID,151.385,VALID,20.8941,VALID,5,VALID,0,
2016-09-27, 14:47:04,VALID,918.003,VALID,0,INVALID,112.903,VALID,153.856,VALID,20.8941,VALID,18,VALID,0,
2016-09-27, 14:48:04,VALID,918.06,VALID,0,INVALID,113.353,VALID,156.112,VALID,20.9136,VALID,21,VALID,0,
2016-09-27, 14:49:04,VALID,918.082,VALID,0,INVALID,113.17,VALID,158.368,VALID,20.9933,VALID,313,VALID,0,
2016-09-27, 14:50:04,VALID,918.086,VALID,0,INVALID,112.003,VALID,160.195,VALID,20.9136,VALID,298,VALID,0,
2016-09-27, 14:51:04,VALID,918.104,VALID,0,INVALID,112.949,VALID,161.806,VALID,20.8551,VALID,298,VALID,0,
2016-09-27, 14:52:04,VALID,918.149,VALID,0,INVALID,113.337,VALID,163.311,VALID,20.8161,VALID,298,VALID,0,
2016-09-27, 14:53:04,VALID,918.135,VALID,0,INVALID,113.436,VALID,164.815,VALID,20.7966,VALID,298,VALID,0,
2016-09-27, 14:54:04,VALID,918.142,VALID,0,INVALID,112.59,VALID,165.997,VALID,20.7771,VALID,43,VALID,0,
2016-09-27, 14:55:04,VALID,918.152,VALID,0,INVALID,112.903,VALID,167.823,VALID,20.8161,VALID,29,VALID,0,
2016-09-27, 14:56:04,VALID,918.141,VALID,0,INVALID,113.97,VALID,169.542,VALID,20.834,VALID,50,VALID,0,
2016-09-27, 14:57:04,VALID,918.162,VALID,0,INVALID,113.345,VALID,171.369,VALID,20.8941,VALID,52,VALID,0,
2016-09-27, 14:58:04,VALID,918.209,VALID,0,INVALID,112.994,VALID,174.699,VALID,20.9331,VALID,22,VALID,0,
2016-09-27, 14:59:04,VALID,918.168,VALID,0,INVALID,113.597,VALID,178.46,VALID,20.9917,VALID,33,VALID,0,
2016-09-27, 15:00:04,VALID,918.215,VALID,0,INVALID,112.705,VALID,182.328,VALID,21.0502,VALID,44,VALID,0,
2016-09-27, 15:01:04,VALID,918.217,VALID,0,INVALID,111.18,VALID,187.807,VALID,21.0876,VALID,1,VALID,0,
2016-09-27, 15:02:04,VALID,918.209,VALID,0,INVALID,110.982,VALID,191.568,VALID,21.1266,VALID,2,VALID,0,
2016-09-27, 15:03:04,VALID,918.238,VALID,0,INVALID,111.919,VALID,195.865,VALID,21.2047,VALID,2,VALID,0,
2016-09-27, 15:04:04,VALID,918.262,VALID,0,VALID,104,VALID,201.774,VALID,21.2632,VALID,301,VALID,0,
2016-09-27, 15:05:04,VALID,918.28,VALID,0,INVALID,109.32,VALID,207.791,VALID,21.2827,VALID,301,VALID,0,
2016-09-27, 15:06:04,VALID,918.275,VALID,0,INVALID,110.905,VALID,214.345,VALID,21.3022,VALID,301,VALID,0,
2016-09-27, 15:07:04,VALID,918.238,VALID,0,VALID,102.26,VALID,221.114,VALID,21.3412,VALID,301,VALID,0,
2016-09-27, 15:08:04,VALID,918.238,VALID,0,VALID,93.303,VALID,226.701,VALID,21.4193,VALID,301,VALID,0,
2016-09-27, 15:09:04,VALID,918.272,VALID,0,VALID,95.468,VALID,230.784,VALID,21.5575,VALID,302,VALID,0,
2016-09-27, 15:10:04,VALID,918.315,VALID,0,VALID,90.0325,VALID,238.197,VALID,21.5949,VALID,315,VALID,0,
2016-09-27, 15:11:04,VALID,918.306,VALID,0,VALID,95.6662,VALID,247.222,VALID,21.5559,VALID,321,VALID,0,
2016-09-27, 15:12:04,VALID,918.284,VALID,0,VALID,92.9828,VALID,253.991,VALID,21.5949,VALID,22,VALID,0,
2016-09-27, 15:13:04,VALID,918.293,VALID,0,VALID,89.6895,VALID,261.727,VALID,21.6729,VALID,26,VALID,0,
2016-09-27, 15:14:04,VALID,918.286,VALID,0,VALID,84.3912,VALID,270.429,VALID,21.7705,VALID,5,VALID,0,
2016-09-27, 15:15:04,VALID,918.305,VALID,0,VALID,85.7939,VALID,278.273,VALID,21.8079,VALID,17,VALID,0,
2016-09-27, 15:16:04,VALID,918.265,VALID,0,VALID,88.8128,VALID,283.43,VALID,21.8079,VALID,25,VALID,0,
2016-09-27, 15:17:04,VALID,918.276,VALID,0,VALID,85.7406,VALID,286.76,VALID,21.8469,VALID,10,VALID,0,
2016-09-27, 15:18:04,VALID,918.284,VALID,0,VALID,82.7369,VALID,290.413,VALID,21.9249,VALID,31,VALID,0.43125,
2016-09-27, 15:19:04,VALID,918.283,VALID,0,VALID,85.7939,VALID,294.281,VALID,22.0047,VALID,54,VALID,0,
2016-09-27, 15:20:04,VALID,918.246,VALID,0,VALID,84.6275,VALID,295.678,VALID,22.1201,VALID,40,VALID,0.0078125,
2016-09-27, 15:21:04,VALID,918.255,VALID,0,VALID,82.1499,VALID,298.579,VALID,22.1786,VALID,48,VALID,0,
2016-09-27, 15:22:04,VALID,918.256,VALID,0,VALID,84.6199,VALID,297.397,VALID,22.2176,VALID,51,VALID,0,
2016-09-27, 15:23:04,VALID,918.252,VALID,0,VALID,83.8728,VALID,291.38,VALID,22.2974,VALID,64,VALID,0,
2016-09-27, 15:24:04,VALID,918.257,VALID,0,VALID,81.845,VALID,300.298,VALID,22.3169,VALID,44,VALID,0,
2016-09-27, 15:25:04,VALID,918.243,VALID,0,VALID,82.0432,VALID,320.067,VALID,22.3737,VALID,32,VALID,0,
2016-09-27, 15:26:04,VALID,918.268,VALID,0,VALID,82.9961,VALID,341.555,VALID,22.5121,VALID,31,VALID,0,
2016-09-27, 15:27:04,VALID,918.293,VALID,0,VALID,79.6876,VALID,367.986,VALID,22.6682,VALID,6,VALID,0,
2016-09-27, 15:28:04,VALID,918.284,VALID,0,VALID,77.2633,VALID,380.449,VALID,22.7836,VALID,26,VALID,0,
2016-09-27, 15:29:04,VALID,918.307,VALID,0,VALID,79.2607,VALID,372.176,VALID,22.8812,VALID,325,VALID,0,
2016-09-27, 15:30:04,VALID,918.311,VALID,0,VALID,78.3458,VALID,355.953,VALID,22.9007,VALID,349,VALID,0,
2016-09-27, 15:31:04,VALID,918.338,VALID,0,VALID,77.6979,VALID,345.101,VALID,22.9007,VALID,44,VALID,0,
2016-09-27, 15:32:04,VALID,918.361,VALID,0,VALID,79.6876,VALID,325.332,VALID,22.9983,VALID,8,VALID,0,
2016-09-27, 15:33:04,VALID,918.358,VALID,0,VALID,78.9786,VALID,309.001,VALID,23.0568,VALID,313,VALID,0,
2016-09-27, 15:34:04,VALID,918.391,VALID,0,VALID,77.5987,VALID,299.331,VALID,22.9592,VALID,282,VALID,0,
2016-09-27, 15:35:04,VALID,918.4,VALID,0,VALID,77.7665,VALID,295.785,VALID,22.8989,VALID,314,VALID,0,
2016-09-27, 15:36:04,VALID,918.396,VALID,0,VALID,76.1808,VALID,286.653,VALID,22.9397,VALID,315,VALID,0,
2016-09-27, 15:37:04,VALID,918.433,VALID,0,VALID,74.9001,VALID,278.38,VALID,23.0178,VALID,274,VALID,0,
2016-09-27, 15:38:04,VALID,918.442,VALID,0,VALID,75.7005,VALID,272.041,VALID,23.1136,VALID,360,VALID,0,
2016-09-27, 15:39:04,VALID,918.43,VALID,0,VALID,73.0095,VALID,265.487,VALID,23.1136,VALID,16,VALID,1.21406,
2016-09-27, 15:40:04,VALID,918.463,VALID,0,VALID,75.8987,VALID,260.115,VALID,22.977,VALID,21,VALID,0,
2016-09-27, 15:41:04,VALID,918.472,VALID,0,VALID,75.1059,VALID,252.594,VALID,22.938,VALID,21,VALID,0,
2016-09-27, 15:42:04,VALID,918.447,VALID,0,VALID,75.0373,VALID,246.04,VALID,22.9575,VALID,18,VALID,0,
2016-09-27, 15:43:04,VALID,918.459,VALID,0,VALID,75.609,VALID,244.858,VALID,23.0959,VALID,18,VALID,0,
2016-09-27, 15:44:04,VALID,918.473,VALID,0,VALID,75.4261,VALID,246.255,VALID,23.1739,VALID,18,VALID,0,
2016-09-27, 15:45:04,VALID,918.491,VALID,0,VALID,75.9216,VALID,246.363,VALID,23.1935,VALID,230,VALID,0.0476562,
2016-09-27, 15:46:04,VALID,918.5,VALID,0,VALID,74.7552,VALID,247.115,VALID,22.977,VALID,246,VALID,0,
2016-09-27, 15:47:04,VALID,918.505,VALID,0,VALID,74.9458,VALID,256.032,VALID,22.8209,VALID,242,VALID,0,
2016-09-27, 15:48:04,VALID,918.514,VALID,0,VALID,75.5023,VALID,257.536,VALID,22.7623,VALID,244,VALID,0,
2016-09-27, 15:49:04,VALID,918.506,VALID,0,VALID,77.4615,VALID,251.627,VALID,22.8404,VALID,244,VALID,0,
2016-09-27, 15:50:04,VALID,918.477,VALID,0,VALID,78.5669,VALID,247.867,VALID,22.8989,VALID,330,VALID,0.0277344,
2016-09-27, 15:51:04,VALID,918.492,VALID,0,VALID,79.3674,VALID,248.619,VALID,22.8599,VALID,342,VALID,0,
2016-09-27, 15:52:04,VALID,918.508,VALID,0,VALID,80.9302,VALID,251.305,VALID,22.9185,VALID,10,VALID,0,
2016-09-27, 15:53:04,VALID,918.557,VALID,0,VALID,78.4754,VALID,258.503,VALID,22.977,VALID,354,VALID,0,
2016-09-27, 15:54:04,VALID,918.573,VALID,0,VALID,78.4297,VALID,260.437,VALID,22.9965,VALID,347,VALID,0,
2016-09-27, 15:55:04,VALID,918.591,VALID,0,VALID,78.9252,VALID,260.867,VALID,23.0551,VALID,18,VALID,0,
2016-09-27, 15:56:04,VALID,918.603,VALID,0,VALID,74.8619,VALID,268.173,VALID,23.0941,VALID,355,VALID,0,
2016-09-27, 15:57:04,VALID,918.635,VALID,0,VALID,74.5723,VALID,280.421,VALID,23.0941,VALID,355,VALID,0,
2016-09-27, 15:58:04,VALID,918.631,VALID,0,VALID,77.0346,VALID,289.554,VALID,23.0728,VALID,9,VALID,0,
2016-09-27, 15:59:04,VALID,918.63,VALID,0,VALID,76.3028,VALID,294.711,VALID,23.0941,VALID,9,VALID,0,
2016-09-27, 16:00:04,VALID,918.633,VALID,0,VALID,76.623,VALID,297.934,VALID,23.0941,VALID,3,VALID,0,
2016-09-27, 16:01:04,VALID,918.62,VALID,0,VALID,76.905,VALID,302.125,VALID,23.1136,VALID,29,VALID,0,
2016-09-27, 16:02:04,VALID,918.646,VALID,0,VALID,77.7131,VALID,307.604,VALID,23.0746,VALID,34,VALID,0,
2016-09-27, 16:03:04,VALID,918.67,VALID,0,VALID,79.619,VALID,310.612,VALID,23.0924,VALID,25,VALID,0,
2016-09-27, 16:04:04,VALID,918.68,VALID,0,VALID,76.5925,VALID,313.943,VALID,23.1527,VALID,19,VALID,0,
2016-09-27, 16:05:04,VALID,918.68,VALID,0,VALID,76.5696,VALID,311.902,VALID,23.1509,VALID,40,VALID,0,
2016-09-27, 16:06:04,VALID,918.711,VALID,0,VALID,76.6535,VALID,317.703,VALID,23.2485,VALID,348,VALID,0,
2016-09-27, 16:07:04,VALID,918.723,VALID,0,VALID,75.8606,VALID,314.91,VALID,23.3088,VALID,315,VALID,0,
2016-09-27, 16:08:04,VALID,918.709,VALID,0,VALID,75.4489,VALID,309.645,VALID,23.229,VALID,311,VALID,0,
2016-09-27, 16:09:04,VALID,918.726,VALID,0,VALID,75.3041,VALID,315.447,VALID,23.3088,VALID,311,VALID,0,
2016-09-27, 16:10:04,VALID,918.712,VALID,0,VALID,75.0525,VALID,310.505,VALID,23.3674,VALID,311,VALID,0,
2016-09-27, 16:11:04,VALID,918.698,VALID,0,VALID,76.4095,VALID,305.992,VALID,23.4046,VALID,311,VALID,0,
2016-09-27, 16:12:04,VALID,918.713,VALID,0,VALID,74.5646,VALID,297.505,VALID,23.4259,VALID,311,VALID,0,
2016-09-27, 16:13:04,VALID,918.676,VALID,0,VALID,74.0844,VALID,292.67,VALID,23.4437,VALID,311,VALID,0,
2016-09-27, 16:14:04,VALID,918.707,VALID,0,VALID,74.374,VALID,289.124,VALID,23.5217,VALID,354,VALID,0,
2016-09-27, 16:15:04,VALID,918.712,VALID,0,VALID,74.5189,VALID,294.066,VALID,23.5608,VALID,12,VALID,0,
2016-09-27, 16:16:04,VALID,918.704,VALID,0,VALID,74.1835,VALID,302.984,VALID,23.5998,VALID,343,VALID,0,
2016-09-27, 16:17:04,VALID,918.681,VALID,0,VALID,75.7463,VALID,315.555,VALID,23.5998,VALID,305,VALID,0,
2016-09-27, 16:18:04,VALID,918.695,VALID,0,VALID,73.8099,VALID,323.398,VALID,23.5022,VALID,291,VALID,0,
2016-09-27, 16:19:04,VALID,918.666,VALID,0,VALID,74.0386,VALID,342.522,VALID,23.5022,VALID,291,VALID,0,
2016-09-27, 16:20:04,VALID,918.619,VALID,0,VALID,74.8086,VALID,355.308,VALID,23.5803,VALID,335,VALID,0,
2016-09-27, 16:21:04,VALID,918.632,VALID,0,VALID,73.2991,VALID,369.168,VALID,23.5803,VALID,342,VALID,0,
2016-09-27, 16:22:04,VALID,918.644,VALID,0,VALID,73.3906,VALID,387.648,VALID,23.5412,VALID,16,VALID,0.451953,
2016-09-27, 16:23:04,VALID,918.646,VALID,0,VALID,75.3498,VALID,417.731,VALID,23.5199,VALID,321,VALID,0,
2016-09-27, 16:24:04,VALID,918.641,VALID,0,VALID,72.9485,VALID,425.897,VALID,23.6779,VALID,348,VALID,0,
2016-09-27, 16:25:04,VALID,918.66,VALID,0,VALID,74.7476,VALID,446.418,VALID,23.8536,VALID,308,VALID,0,
2016-09-27, 16:26:04,VALID,918.641,VALID,0,VALID,70.4175,VALID,332.96,VALID,23.9707,VALID,225,VALID,0,
2016-09-27, 16:27:04,VALID,918.695,VALID,0,VALID,72.3996,VALID,322.001,VALID,24.0115,VALID,288,VALID,0,
2016-09-27, 16:28:04,VALID,918.668,VALID,0,VALID,73.1086,VALID,431.376,VALID,23.9902,VALID,288,VALID,0,
2016-09-27, 16:29:04,VALID,918.668,VALID,0,VALID,73.6727,VALID,471.774,VALID,24.0878,VALID,289,VALID,0,
2016-09-27, 16:30:04,VALID,918.667,VALID,0,VALID,67.3071,VALID,469.84,VALID,24.1659,VALID,278,VALID,0,
2016-09-27, 16:31:04,VALID,918.662,VALID,0,VALID,69.0072,VALID,460.278,VALID,24.1659,VALID,275,VALID,0,
2016-09-27, 16:32:04,VALID,918.644,VALID,0,VALID,71.0807,VALID,465.22,VALID,24.1269,VALID,273,VALID,0,
2016-09-27, 16:33:04,VALID,918.653,VALID,0,VALID,71.2332,VALID,483.593,VALID,24.2245,VALID,360,VALID,0,
2016-09-27, 16:34:04,VALID,918.656,VALID,0,VALID,68.5421,VALID,485.634,VALID,24.4392,VALID,345,VALID,0,
2016-09-27, 16:35:04,VALID,918.671,VALID,0,VALID,69.6552,VALID,475.535,VALID,24.5564,VALID,302,VALID,0,
2016-09-27, 16:36:04,VALID,918.703,VALID,0,VALID,67.2004,VALID,474.353,VALID,24.5155,VALID,303,VALID,0,
2016-09-27, 16:37:04,VALID,918.653,VALID,0,VALID,69.8991,VALID,482.196,VALID,24.4783,VALID,303,VALID,0,
2016-09-27, 16:38:04,VALID,918.657,VALID,0,VALID,70.9435,VALID,493.477,VALID,24.5368,VALID,13,VALID,0,
2016-09-27, 16:39:04,VALID,918.71,VALID,0,VALID,68.4049,VALID,507.874,VALID,24.5935,VALID,352,VALID,0,
2016-09-27, 16:40:04,VALID,918.72,VALID,0,VALID,66.7506,VALID,511.205,VALID,24.6521,VALID,292,VALID,0,
2016-09-27, 16:41:04,VALID,918.721,VALID,0,VALID,68.1762,VALID,528.181,VALID,24.7516,VALID,23,VALID,0,
2016-09-27, 16:42:04,VALID,918.697,VALID,0,VALID,68.1228,VALID,535.916,VALID,24.8669,VALID,15,VALID,0,
2016-09-27, 16:43:04,VALID,918.669,VALID,0,VALID,67.0251,VALID,529.47,VALID,24.9255,VALID,316,VALID,0,
2016-09-27, 16:44:04,VALID,918.648,VALID,0,VALID,66.5677,VALID,522.271,VALID,25.0231,VALID,304,VALID,0,
2016-09-27, 16:45:04,VALID,918.71,VALID,0,VALID,67.0327,VALID,512.924,VALID,25.0036,VALID,200,VALID,0,
2016-09-27, 16:46:04,VALID,918.672,VALID,0,VALID,67.0327,VALID,491.221,VALID,25.0817,VALID,346,VALID,0,
2016-09-27, 16:47:04,VALID,918.649,VALID,0,VALID,66.9717,VALID,496.593,VALID,25.0036,VALID,316,VALID,0,
2016-09-27, 16:48:04,VALID,918.664,VALID,0,VALID,67.4749,VALID,496.808,VALID,25.0055,VALID,316,VALID,0,
2016-09-27, 16:49:04,VALID,918.629,VALID,0,VALID,67.4749,VALID,508.197,VALID,25.1031,VALID,303,VALID,0,
2016-09-27, 16:50:04,VALID,918.621,VALID,0,VALID,67.8408,VALID,516.147,VALID,25.0817,VALID,270,VALID,0,
2016-09-27, 16:51:04,VALID,918.632,VALID,0,VALID,67.33,VALID,516.47,VALID,24.9059,VALID,263,VALID,0,
2016-09-27, 16:52:04,VALID,918.643,VALID,0,VALID,67.6502,VALID,515.18,VALID,24.7888,VALID,245,VALID,0,
2016-09-27, 16:53:04,VALID,918.628,VALID,0,VALID,69.5103,VALID,513.676,VALID,24.8669,VALID,246,VALID,0,
2016-09-27, 16:54:04,VALID,918.566,VALID,0,VALID,65.3784,VALID,526.999,VALID,25.0231,VALID,281,VALID,0,
2016-09-27, 16:55:04,VALID,918.592,VALID,0,VALID,67.9551,VALID,527.429,VALID,24.8474,VALID,282,VALID,0,
2016-09-27, 16:56:04,VALID,918.602,VALID,0,VALID,69.5408,VALID,533.123,VALID,24.8064,VALID,285,VALID,0,
2016-09-27, 16:57:04,VALID,918.635,VALID,0,VALID,68.039,VALID,533.338,VALID,24.9255,VALID,272,VALID,0,
2016-09-27, 16:58:04,VALID,918.582,VALID,0,VALID,68.4202,VALID,518.726,VALID,25.0621,VALID,313,VALID,0,
2016-09-27, 16:59:04,VALID,918.597,VALID,0,VALID,69.7695,VALID,525.28,VALID,25.1402,VALID,358,VALID,0.153125,
2016-09-27, 17:00:04,VALID,918.575,VALID,0,VALID,67.2843,VALID,568.471,VALID,25.2555,VALID,14,VALID,0,
2016-09-27, 17:01:04,VALID,918.615,VALID,0,VALID,69.556,VALID,593.72,VALID,25.4331,VALID,354,VALID,0,
2016-09-27, 17:02:04,VALID,918.614,VALID,0,VALID,65.3937,VALID,622.192,VALID,25.5894,VALID,30,VALID,0,
2016-09-27, 17:03:04,VALID,918.588,VALID,0,VALID,63.6022,VALID,637.019,VALID,25.5503,VALID,216,VALID,0,
2016-09-27, 17:04:04,VALID,918.611,VALID,0,VALID,64.4484,VALID,660.118,VALID,25.6304,VALID,184,VALID,0,
2016-09-27, 17:05:04,VALID,918.634,VALID,0,VALID,65.1192,VALID,671.077,VALID,25.8452,VALID,355,VALID,0,
2016-09-27, 17:06:04,VALID,918.65,VALID,0,VALID,65.1116,VALID,663.986,VALID,25.9604,VALID,35,VALID,0,
2016-09-27, 17:07:04,VALID,918.678,VALID,0,VALID,63.991,VALID,647.978,VALID,26.0972,VALID,16,VALID,0,
2016-09-27, 17:08:04,VALID,918.74,VALID,0,VALID,61.9479,VALID,627.027,VALID,26.1558,VALID,322,VALID,0.00585938,
2016-09-27, 17:09:04,VALID,918.692,VALID,0,VALID,62.6874,VALID,612.737,VALID,25.9214,VALID,261,VALID,2.05312,
2016-09-27, 17:10:04,VALID,918.745,VALID,0,VALID,67.1089,VALID,594.902,VALID,25.6265,VALID,276,VALID,0,
2016-09-27, 17:11:04,VALID,918.72,VALID,0,VALID,64.3645,VALID,573.091,VALID,25.7437,VALID,37,VALID,0.00429688,
2016-09-27, 17:12:04,VALID,918.705,VALID,0,VALID,65.8816,VALID,578.356,VALID,25.8999,VALID,45,VALID,0,
2016-09-27, 17:13:04,VALID,918.782,VALID,0,VALID,62.7865,VALID,591.571,VALID,25.8608,VALID,248,VALID,0.672266,
2016-09-27, 17:14:04,VALID,918.799,VALID,0,VALID,62.977,VALID,600.166,VALID,25.8218,VALID,253,VALID,0,
2016-09-27, 17:15:04,VALID,918.771,VALID,0,VALID,63.0685,VALID,621.547,VALID,25.9604,VALID,15,VALID,0,
2016-09-27, 17:16:04,VALID,918.803,VALID,0,VALID,64.9286,VALID,626.704,VALID,25.8608,VALID,10,VALID,0.964844,
2016-09-27, 17:17:04,VALID,918.784,VALID,0,VALID,61.0864,VALID,635.837,VALID,25.7241,VALID,268,VALID,0.280078,
2016-09-27, 17:18:04,VALID,918.788,VALID,0,VALID,62.6569,VALID,676.02,VALID,25.5093,VALID,15,VALID,2.57227,
2016-09-27, 17:19:04,VALID,918.798,VALID,0,VALID,65.5842,VALID,705.351,VALID,25.4683,VALID,23,VALID,1.79922,
2016-09-27, 17:20:04,VALID,918.814,VALID,0,VALID,63.7089,VALID,721.252,VALID,25.6265,VALID,343,VALID,0.589063,
2016-09-27, 17:21:04,VALID,918.797,VALID,0,VALID,64.921,VALID,748.865,VALID,25.7026,VALID,6,VALID,1.49023,
2016-09-27, 17:22:04,VALID,918.788,VALID,0,VALID,62.6035,VALID,760.898,VALID,25.7222,VALID,315,VALID,0.521484,
2016-09-27, 17:23:04,VALID,918.801,VALID,0,VALID,63.6555,VALID,776.799,VALID,25.8393,VALID,305,VALID,0.00585938,
2016-09-27, 17:24:04,VALID,918.776,VALID,0,VALID,63.7394,VALID,797.428,VALID,25.937,VALID,350,VALID,0.00585938,
2016-09-27, 17:25:04,VALID,918.765,VALID,0,VALID,63.5945,VALID,801.404,VALID,26.0932,VALID,13,VALID,0.328516,
2016-09-27, 17:26:04,VALID,918.793,VALID,0,VALID,61.9479,VALID,829.123,VALID,26.308,VALID,40,VALID,0.689453,
2016-09-27, 17:27:04,VALID,918.756,VALID,0,VALID,61.0483,VALID,852.975,VALID,26.3862,VALID,338,VALID,0.972656,
2016-09-27, 17:28:04,VALID,918.777,VALID,0,VALID,62.6492,VALID,849.215,VALID,26.4077,VALID,360,VALID,0.728516,
2016-09-27, 17:29:04,VALID,918.757,VALID,0,VALID,63.2515,VALID,852.653,VALID,26.6226,VALID,18,VALID,0.0289063,
2016-09-27, 17:30:04,VALID,918.742,VALID,0,VALID,62.5273,VALID,841.264,VALID,26.8179,VALID,356,VALID,2.2293,
2016-09-27, 17:31:04,VALID,918.712,VALID,0,VALID,60.6138,VALID,855.232,VALID,26.4447,VALID,28,VALID,1.20234,
2016-09-27, 17:32:04,VALID,918.688,VALID,0,VALID,65.5995,VALID,851.471,VALID,26.3471,VALID,357,VALID,0.441016,
2016-09-27, 17:33:04,VALID,918.666,VALID,0,VALID,65.3251,VALID,842.661,VALID,26.5444,VALID,9,VALID,0.175,
2016-09-27, 17:34:04,VALID,918.65,VALID,0,VALID,60.7053,VALID,830.735,VALID,26.6987,VALID,307,VALID,0.240234,
2016-09-27, 17:35:04,VALID,918.686,VALID,0,VALID,61.6582,VALID,844.273,VALID,26.7768,VALID,344,VALID,0,
2016-09-27, 17:36:04,VALID,918.673,VALID,0,VALID,62.1613,VALID,849.752,VALID,27.0307,VALID,354,VALID,0.0195313,
2016-09-27, 17:37:04,VALID,918.584,VALID,0,VALID,57.0536,VALID,856.199,VALID,27.3649,VALID,355,VALID,0.504297,
2016-09-27, 17:38:04,VALID,918.555,VALID,0,VALID,58.3725,VALID,836.429,VALID,27.2261,VALID,31,VALID,0.714063,
2016-09-27, 17:39:04,VALID,918.547,VALID,0,VALID,59.9963,VALID,829.983,VALID,27.1479,VALID,35,VALID,0.621875,
2016-09-27, 17:40:04,VALID,918.537,VALID,0,VALID,59.577,VALID,819.991,VALID,27.3238,VALID,19,VALID,0,
2016-09-27, 17:41:04,VALID,918.545,VALID,0,VALID,58.7842,VALID,830.198,VALID,27.4019,VALID,45,VALID,0,
2016-09-27, 17:42:04,VALID,918.479,VALID,0,VALID,59.7981,VALID,834.173,VALID,27.5973,VALID,47,VALID,0.0132813,
2016-09-27, 17:43:04,VALID,918.534,VALID,0,VALID,58.2734,VALID,813.867,VALID,27.5777,VALID,314,VALID,0.00820312,
2016-09-27, 17:44:04,VALID,918.491,VALID,0,VALID,57.4729,VALID,819.239,VALID,27.2261,VALID,221,VALID,0.113281,
2016-09-27, 17:45:04,VALID,918.46,VALID,0,VALID,58.8909,VALID,853.62,VALID,27.2631,VALID,109,VALID,0,
2016-09-27, 17:46:04,VALID,918.48,VALID,0,VALID,57.0308,VALID,848.248,VALID,27.5777,VALID,294,VALID,0,
2016-09-27, 17:47:04,VALID,918.458,VALID,0,VALID,59.0891,VALID,420.74,VALID,27.7124,VALID,8,VALID,0.616797,
2016-09-27, 17:48:04,VALID,918.439,VALID,0,VALID,57.3357,VALID,683.218,VALID,27.7927,VALID,150,VALID,0.376563,
2016-09-27, 17:49:04,VALID,918.437,VALID,0,VALID,58.3115,VALID,284.612,VALID,27.6342,VALID,335,VALID,0,
2016-09-27, 17:50:04,VALID,918.408,VALID,0,VALID,58.0523,VALID,264.198,VALID,27.4975,VALID,263,VALID,0,
2016-09-27, 17:51:04,VALID,918.466,VALID,0,VALID,57.4882,VALID,927.539,VALID,27.1459,VALID,253,VALID,1.82383,
2016-09-27, 17:52:04,VALID,918.452,VALID,0,VALID,61.5896,VALID,357.779,VALID,26.6576,VALID,265,VALID,0.235156,
2016-09-27, 17:53:04,VALID,918.418,VALID,0,VALID,60.629,VALID,974.384,VALID,26.5013,VALID,240,VALID,0.0195313,